AMX930 MMMX-MMMY

Flight info

Callsign AMX930
Flight time 1h 10m
Altitude 38000
Route AXIRI2A AXIRI UT138 TALPU DCT RETOS RETOS1A
Aircraft B38M/M-SDE1FGHILORVWXY/HB1

Departure

Time 2026-05-09 02:32
Airport Mexico City Benito Juárez International Airport (MMMX)

Arrival

Time 2026-05-09 03:42
Airport Monterrey International Airport (MMMY)
Time Latitude Longitude Altitude Speed Heading
2026-05-09 01:55 19.42192 -99.08055 7305 ft 0 kts 29°
2026-05-09 02:03 19.42191 -99.08055 7305 ft 0 kts 29°
2026-05-09 02:22 19.42186 -99.08058 7278 ft 4 kts 29°
2026-05-09 02:22 19.42165 -99.08071 7305 ft 4 kts 21°
2026-05-09 02:22 19.42143 -99.08071 7296 ft 4 kts 323°
2026-05-09 02:23 19.42128 -99.08052 7308 ft 1 kts 301°
2026-05-09 02:23 19.42126 -99.08048 7305 ft 0 kts 301°
2026-05-09 02:27 19.42137 -99.08067 7301 ft 6 kts 301°
2026-05-09 02:27 19.42167 -99.08118 7305 ft 10 kts 301°
2026-05-09 02:27 19.42214 -99.08195 7305 ft 13 kts 314°
2026-05-09 02:28 19.42253 -99.08204 7305 ft 8 kts
2026-05-09 02:28 19.42316 -99.08202 7305 ft 9 kts 355°
2026-05-09 02:28 19.42356 -99.08224 7305 ft 5 kts 320°
2026-05-09 02:28 19.42378 -99.08245 7305 ft 5 kts 310°
2026-05-09 02:29 19.42404 -99.08296 7305 ft 11 kts 294°
2026-05-09 02:29 19.42443 -99.08393 7305 ft 16 kts 293°
2026-05-09 02:29 19.42482 -99.08494 7305 ft 14 kts 291°
2026-05-09 02:29 19.42507 -99.08581 7305 ft 11 kts 285°
2026-05-09 02:30 19.42530 -99.08653 7305 ft 9 kts 292°
2026-05-09 02:30 19.42552 -99.08710 7305 ft 10 kts 292°
2026-05-09 02:30 19.42596 -99.08819 7305 ft 22 kts 293°
2026-05-09 02:30 19.42651 -99.08960 7305 ft 16 kts 292°
2026-05-09 02:31 19.42703 -99.09060 7305 ft 14 kts 329°
2026-05-09 02:31 19.42773 -99.09024 7305 ft 11 kts 56°
2026-05-09 02:31 19.42808 -99.08961 7305 ft 10 kts 58°
2026-05-09 02:31 19.42902 -99.08795 7305 ft 54 kts 59°
2026-05-09 02:32 19.43212 -99.08243 7305 ft 118 kts 59°
2026-05-09 02:32 19.43731 -99.07320 7306 ft 171 kts 60°
2026-05-09 02:32 19.44367 -99.06159 7783 ft 191 kts 59°
2026-05-09 02:32 19.45073 -99.04865 8595 ft 213 kts 57°
2026-05-09 02:33 19.45823 -99.03503 9287 ft 213 kts 57°
2026-05-09 02:33 19.46636 -99.02099 9575 ft 234 kts 59°
2026-05-09 02:33 19.47513 -99.00558 9971 ft 255 kts 59°
2026-05-09 02:33 19.48473 -98.98860 10307 ft 280 kts 59°
2026-05-09 02:34 19.49480 -98.97072 10992 ft 289 kts 59°
2026-05-09 02:34 19.50545 -98.95178 11424 ft 309 kts 60°
2026-05-09 02:34 19.51674 -98.93159 11880 ft 326 kts 60°
2026-05-09 02:34 19.52935 -98.91110 12409 ft 339 kts 47°
2026-05-09 02:35 19.54863 -98.89697 13157 ft 341 kts 19°
2026-05-09 02:35 19.57202 -98.89333 13809 ft 343 kts 351°
2026-05-09 02:35 19.59498 -98.89967 14577 ft 343 kts 341°
2026-05-09 02:35 19.61848 -98.90571 15248 ft 350 kts 345°
2026-05-09 02:36 19.64207 -98.91101 15985 ft 353 kts 346°
2026-05-09 02:36 19.66623 -98.91619 16694 ft 356 kts 347°
2026-05-09 02:36 19.69068 -98.92128 17396 ft 360 kts 347°
2026-05-09 02:36 19.71538 -98.92631 18070 ft 364 kts 347°
2026-05-09 02:37 19.74039 -98.93135 18697 ft 367 kts 347°
2026-05-09 02:37 19.76560 -98.93642 19261 ft 370 kts 347°
2026-05-09 02:37 19.78275 -98.93988 19640 ft 372 kts 347°
2026-05-09 02:37 19.80834 -98.94503 20187 ft 376 kts 347°
2026-05-09 02:38 19.83412 -98.95021 20701 ft 379 kts 347°
2026-05-09 02:38 19.86014 -98.95545 21207 ft 382 kts 347°
2026-05-09 02:38 19.88600 -98.96067 21701 ft 385 kts 347°
2026-05-09 02:38 19.91282 -98.96607 22182 ft 389 kts 347°
2026-05-09 02:39 19.93914 -98.97138 22641 ft 392 kts 347°
2026-05-09 02:39 19.96604 -98.97680 23104 ft 396 kts 347°
2026-05-09 02:39 19.99308 -98.98226 23562 ft 399 kts 347°
2026-05-09 02:39 20.01920 -98.98753 23915 ft 402 kts 347°
2026-05-09 02:40 20.04681 -98.99311 24309 ft 405 kts 347°
2026-05-09 02:40 20.07455 -98.99872 24676 ft 407 kts 347°
2026-05-09 02:40 20.10249 -99.00437 25047 ft 410 kts 347°
2026-05-09 02:40 20.13064 -99.01006 25443 ft 413 kts 347°
2026-05-09 02:41 20.15892 -99.01578 25851 ft 415 kts 347°
2026-05-09 02:41 20.18743 -99.02156 26256 ft 418 kts 347°
2026-05-09 02:41 20.21607 -99.02736 26645 ft 420 kts 347°
2026-05-09 02:41 20.24490 -99.03320 27031 ft 423 kts 347°
2026-05-09 02:42 20.27388 -99.03908 27408 ft 425 kts 347°
2026-05-09 02:42 20.30304 -99.04500 27783 ft 428 kts 347°
2026-05-09 02:42 20.33238 -99.05095 28143 ft 430 kts 347°
2026-05-09 02:42 20.36189 -99.05695 28503 ft 433 kts 347°
2026-05-09 02:43 20.39159 -99.06298 28836 ft 436 kts 346°
2026-05-09 02:43 20.42155 -99.06907 28956 ft 440 kts 347°
2026-05-09 02:43 20.45204 -99.07190 29247 ft 442 kts
2026-05-09 02:43 20.48280 -99.07014 29660 ft 444 kts 360°
2026-05-09 02:44 20.51382 -99.06884 29936 ft 448 kts 360°
2026-05-09 02:44 20.54501 -99.06737 30242 ft 450 kts
2026-05-09 02:44 20.57643 -99.06584 30521 ft 453 kts
2026-05-09 02:44 20.60796 -99.06427 30807 ft 455 kts 360°
2026-05-09 02:45 20.63969 -99.06268 31074 ft 457 kts 360°
2026-05-09 02:45 20.67150 -99.06107 31344 ft 460 kts 360°
2026-05-09 02:45 20.70354 -99.05944 31619 ft 462 kts 360°
2026-05-09 02:45 20.73571 -99.05781 31879 ft 464 kts 360°
2026-05-09 02:46 20.76808 -99.05616 32148 ft 466 kts 359°
2026-05-09 02:46 20.80057 -99.05451 32390 ft 469 kts 359°
2026-05-09 02:46 20.83327 -99.05285 32680 ft 471 kts 359°
2026-05-09 02:46 20.86607 -99.05118 32928 ft 473 kts 359°
2026-05-09 02:47 20.89905 -99.04949 33199 ft 475 kts 359°
2026-05-09 02:47 20.93213 -99.04781 33468 ft 477 kts 359°
2026-05-09 02:47 20.96495 -99.04613 33732 ft 479 kts 359°
2026-05-09 02:47 20.99883 -99.04436 33852 ft 482 kts 359°
2026-05-09 02:48 21.03189 -99.04268 34117 ft 483 kts 359°
2026-05-09 02:48 21.06546 -99.04099 34334 ft 484 kts 359°
2026-05-09 02:48 21.09918 -99.03928 34586 ft 485 kts 359°
2026-05-09 02:48 21.13287 -99.03755 34865 ft 485 kts 359°
2026-05-09 02:49 21.16647 -99.03574 35172 ft 483 kts 359°
2026-05-09 02:49 21.20008 -99.03408 35331 ft 485 kts 358°
2026-05-09 02:49 21.23371 -99.03238 35619 ft 483 kts 358°
2026-05-09 02:49 21.26728 -99.03067 35900 ft 483 kts 358°
2026-05-09 02:50 21.30085 -99.02896 36174 ft 482 kts 358°
2026-05-09 02:50 21.33434 -99.02724 36429 ft 482 kts 358°
2026-05-09 02:50 21.36787 -99.02553 36673 ft 482 kts 358°
2026-05-09 02:50 21.40132 -99.02381 36913 ft 481 kts 358°
2026-05-09 02:51 21.43479 -99.02209 37150 ft 481 kts 358°
2026-05-09 02:51 21.46817 -99.02038 37406 ft 481 kts 358°
2026-05-09 02:51 21.50157 -99.01866 37610 ft 480 kts 358°
2026-05-09 02:51 21.53496 -99.01695 37796 ft 480 kts 358°
2026-05-09 02:52 21.56837 -99.01523 37852 ft 481 kts 358°
2026-05-09 02:52 21.63500 -99.01180 37824 ft 478 kts 358°
2026-05-09 02:53 21.70152 -99.00838 37795 ft 479 kts 358°
2026-05-09 02:53 21.76811 -99.00494 37796 ft 479 kts 358°
2026-05-09 02:54 21.83434 -99.00153 37787 ft 480 kts 358°
2026-05-09 02:54 21.90102 -98.99808 37790 ft 480 kts 358°
2026-05-09 02:55 21.96771 -98.99464 37792 ft 480 kts 358°
2026-05-09 02:55 22.03447 -98.99118 37793 ft 480 kts 358°
2026-05-09 02:56 22.10125 -98.98772 37795 ft 480 kts 358°
2026-05-09 02:56 22.16804 -98.98426 37798 ft 481 kts 358°
2026-05-09 02:57 22.23481 -98.98080 37801 ft 481 kts 358°
2026-05-09 02:57 22.30170 -98.97733 37804 ft 481 kts 357°
2026-05-09 02:58 22.36856 -98.97385 37806 ft 481 kts 357°
2026-05-09 02:58 22.43545 -98.97037 37806 ft 482 kts 357°
2026-05-09 02:59 22.50196 -98.96690 37799 ft 482 kts 357°
2026-05-09 02:59 22.56903 -98.96341 37803 ft 484 kts 357°
2026-05-09 03:00 22.63622 -98.95990 37805 ft 483 kts 357°
2026-05-09 03:00 22.70338 -98.95639 37812 ft 483 kts 357°
2026-05-09 03:01 22.77050 -98.95289 37815 ft 483 kts 357°
2026-05-09 03:01 22.83765 -98.94937 37819 ft 483 kts 357°
2026-05-09 03:02 22.90485 -98.94585 37823 ft 483 kts 357°
2026-05-09 03:02 22.97206 -98.94232 37830 ft 484 kts 357°
2026-05-09 03:03 23.03891 -98.93882 37828 ft 484 kts 357°
2026-05-09 03:03 23.10620 -98.93528 37828 ft 484 kts 357°
2026-05-09 03:04 23.17334 -98.93175 37836 ft 483 kts 356°
2026-05-09 03:04 23.24054 -98.92822 37834 ft 483 kts 356°
2026-05-09 03:05 23.30765 -98.92491 37826 ft 480 kts 353°
2026-05-09 03:05 23.34012 -98.92928 37831 ft 464 kts 339°
2026-05-09 03:05 23.37164 -98.93740 37821 ft 467 kts 340°
2026-05-09 03:06 23.43484 -98.95342 37835 ft 466 kts 339°
2026-05-09 03:06 23.49789 -98.96992 37836 ft 466 kts 339°
2026-05-09 03:07 23.56083 -98.98647 37838 ft 465 kts 339°
2026-05-09 03:07 23.62374 -99.00303 37831 ft 465 kts 339°
2026-05-09 03:08 23.68617 -99.01947 37834 ft 465 kts 339°
2026-05-09 03:08 23.74902 -99.03605 37834 ft 464 kts 339°
2026-05-09 03:09 23.81175 -99.05261 37828 ft 464 kts 338°
2026-05-09 03:09 23.87447 -99.06918 37836 ft 463 kts 338°
2026-05-09 03:10 23.93710 -99.08575 37836 ft 463 kts 338°
2026-05-09 03:10 23.99966 -99.10231 37834 ft 462 kts 338°
2026-05-09 03:11 24.06215 -99.11887 37836 ft 462 kts 338°
2026-05-09 03:11 24.12411 -99.13531 37834 ft 462 kts 338°
2026-05-09 03:12 24.18660 -99.15190 37833 ft 462 kts 338°
2026-05-09 03:12 24.24903 -99.16850 37832 ft 461 kts 338°
2026-05-09 03:13 24.34240 -99.19335 37838 ft 460 kts 338°
2026-05-09 03:13 24.40469 -99.20995 37827 ft 461 kts 338°
2026-05-09 03:14 24.46694 -99.22655 37576 ft 458 kts 338°
2026-05-09 03:14 24.49810 -99.23488 36611 ft 465 kts 338°
2026-05-09 03:14 24.52983 -99.24336 35628 ft 473 kts 339°
2026-05-09 03:15 24.56214 -99.25198 34663 ft 481 kts 339°
2026-05-09 03:15 24.59478 -99.26071 33716 ft 483 kts 339°
2026-05-09 03:15 24.62727 -99.26939 32710 ft 478 kts 339°
2026-05-09 03:15 24.65939 -99.27799 31777 ft 472 kts 340°
2026-05-09 03:16 24.69112 -99.28649 30888 ft 466 kts 340°
2026-05-09 03:16 24.72245 -99.29489 30045 ft 461 kts 340°
2026-05-09 03:16 24.75340 -99.30318 29107 ft 455 kts 340°
2026-05-09 03:16 24.78395 -99.31138 28245 ft 448 kts 340°
2026-05-09 03:17 24.81340 -99.31928 27765 ft 434 kts 340°
2026-05-09 03:17 24.84217 -99.32701 27361 ft 419 kts 340°
2026-05-09 03:17 24.87004 -99.33449 26938 ft 406 kts 340°
2026-05-09 03:17 24.89712 -99.34177 26520 ft 395 kts 340°
2026-05-09 03:18 24.92346 -99.34885 26117 ft 385 kts 340°
2026-05-09 03:18 24.94911 -99.35575 25725 ft 375 kts 340°
2026-05-09 03:18 24.97410 -99.36248 25338 ft 365 kts 340°
2026-05-09 03:18 24.99850 -99.36905 24968 ft 357 kts 340°
2026-05-09 03:19 25.02270 -99.37557 24598 ft 362 kts 340°
2026-05-09 03:19 25.04731 -99.38221 24214 ft 366 kts 340°
2026-05-09 03:19 25.07221 -99.38891 23839 ft 369 kts 340°
2026-05-09 03:19 25.09713 -99.39563 23473 ft 368 kts 340°
2026-05-09 03:20 25.12189 -99.40231 23040 ft 366 kts 340°
2026-05-09 03:20 25.14655 -99.40896 22641 ft 363 kts 340°
2026-05-09 03:20 25.17101 -99.41557 22251 ft 361 kts 340°
2026-05-09 03:20 25.19534 -99.42214 21901 ft 359 kts 340°
2026-05-09 03:21 25.21871 -99.43068 21467 ft 348 kts 328°
2026-05-09 03:21 25.24035 -99.44227 21103 ft 345 kts 328°
2026-05-09 03:21 25.26207 -99.45356 20745 ft 344 kts 328°
2026-05-09 03:21 25.28363 -99.46475 20376 ft 341 kts 329°
2026-05-09 03:22 25.30503 -99.47583 19995 ft 339 kts 328°
2026-05-09 03:22 25.32632 -99.48686 19626 ft 336 kts 329°
2026-05-09 03:22 25.34743 -99.49779 19253 ft 334 kts 328°
2026-05-09 03:22 25.36840 -99.50865 18881 ft 332 kts 328°
2026-05-09 03:23 25.38922 -99.51945 18515 ft 329 kts 328°
2026-05-09 03:23 25.40987 -99.53015 18160 ft 327 kts 328°
2026-05-09 03:23 25.43037 -99.54078 17755 ft 324 kts 328°
2026-05-09 03:23 25.45071 -99.55134 17376 ft 322 kts 328°
2026-05-09 03:24 25.47093 -99.56183 17006 ft 320 kts 329°
2026-05-09 03:24 25.49097 -99.57224 16896 ft 318 kts 329°
2026-05-09 03:24 25.51100 -99.58265 16821 ft 318 kts 328°
2026-05-09 03:24 25.53104 -99.59306 16754 ft 318 kts 329°
2026-05-09 03:25 25.55103 -99.60346 16697 ft 317 kts 328°
2026-05-09 03:25 25.57075 -99.61371 16660 ft 317 kts 329°
2026-05-09 03:25 25.59070 -99.62409 16621 ft 317 kts 328°
2026-05-09 03:25 25.61064 -99.63447 16589 ft 316 kts 328°
2026-05-09 03:26 25.63053 -99.64483 16562 ft 316 kts 328°
2026-05-09 03:26 25.65042 -99.65518 16532 ft 316 kts 328°
2026-05-09 03:26 25.67029 -99.66553 16504 ft 316 kts 328°
2026-05-09 03:26 25.69017 -99.67589 16450 ft 316 kts 328°
2026-05-09 03:27 25.71002 -99.68625 16339 ft 315 kts 328°
2026-05-09 03:27 25.72982 -99.69657 16300 ft 314 kts 328°
2026-05-09 03:27 25.74957 -99.70687 16301 ft 314 kts 328°
2026-05-09 03:27 25.76869 -99.71820 16218 ft 306 kts 315°
2026-05-09 03:28 25.78251 -99.73530 16147 ft 295 kts 298°
2026-05-09 03:28 25.79405 -99.75420 16057 ft 296 kts 298°
2026-05-09 03:28 25.80547 -99.77322 15963 ft 296 kts 298°
2026-05-09 03:28 25.81671 -99.79228 15864 ft 294 kts 298°
2026-05-09 03:29 25.82788 -99.81141 15570 ft 294 kts 297°
2026-05-09 03:29 25.83886 -99.83037 15304 ft 290 kts 297°
2026-05-09 03:29 25.84970 -99.84918 15041 ft 288 kts 297°
2026-05-09 03:29 25.86040 -99.86782 14841 ft 287 kts 297°
2026-05-09 03:30 25.87112 -99.88653 14655 ft 285 kts 297°
2026-05-09 03:30 25.88163 -99.90487 14503 ft 278 kts 297°
2026-05-09 03:30 25.89185 -99.92273 14357 ft 270 kts 297°
2026-05-09 03:30 25.90179 -99.94010 14201 ft 263 kts 297°
2026-05-09 03:31 25.90822 -99.95136 14109 ft 258 kts 297°
2026-05-09 03:31 25.91773 -99.96798 13971 ft 254 kts 297°
2026-05-09 03:31 25.92722 -99.98460 13793 ft 256 kts 297°
2026-05-09 03:31 25.93684 -100.00142 13413 ft 259 kts 297°
2026-05-09 03:32 25.94647 -100.01828 13071 ft 258 kts 297°
2026-05-09 03:32 25.95608 -100.03509 12744 ft 257 kts 297°
2026-05-09 03:32 25.96563 -100.05182 12433 ft 256 kts 297°
2026-05-09 03:32 25.97520 -100.06860 12038 ft 259 kts 298°
2026-05-09 03:33 25.98497 -100.08572 11598 ft 264 kts 298°
2026-05-09 03:33 25.99490 -100.10312 11166 ft 269 kts 298°
2026-05-09 03:33 26.00504 -100.12091 10707 ft 275 kts 299°
2026-05-09 03:33 26.01541 -100.13912 10224 ft 282 kts 300°
2026-05-09 03:34 26.02605 -100.15781 9718 ft 290 kts 300°
2026-05-09 03:34 26.03698 -100.17697 9189 ft 296 kts 300°
2026-05-09 03:34 26.04500 -100.19786 8717 ft 294 kts 274°
2026-05-09 03:34 26.04216 -100.21983 8268 ft 287 kts 240°
2026-05-09 03:35 26.02923 -100.23534 7947 ft 268 kts 208°
2026-05-09 03:35 26.01320 -100.24489 7683 ft 257 kts 208°
2026-05-09 03:35 25.99802 -100.25489 7356 ft 250 kts 208°
2026-05-09 03:35 25.98323 -100.26470 7074 ft 243 kts 208°
2026-05-09 03:36 25.96902 -100.27421 6763 ft 237 kts 208°
2026-05-09 03:36 25.95504 -100.28352 6445 ft 231 kts 207°
2026-05-09 03:36 25.94140 -100.29269 6158 ft 230 kts 207°
2026-05-09 03:36 25.92764 -100.30200 5833 ft 232 kts 208°
2026-05-09 03:37 25.91388 -100.31081 5499 ft 230 kts 199°
2026-05-09 03:37 25.89870 -100.31218 5135 ft 216 kts 159°
2026-05-09 03:37 25.88712 -100.30311 4937 ft 198 kts 127°
2026-05-09 03:37 25.87983 -100.29073 4719 ft 186 kts 122°
2026-05-09 03:38 25.87310 -100.27887 4470 ft 177 kts 123°
2026-05-09 03:38 25.86683 -100.26766 4248 ft 164 kts 123°
2026-05-09 03:38 25.86116 -100.25751 4062 ft 150 kts 123°
2026-05-09 03:38 25.85573 -100.24766 3925 ft 149 kts 122°
2026-05-09 03:39 25.85032 -100.23782 3745 ft 149 kts 122°
2026-05-09 03:39 25.84494 -100.22803 3542 ft 148 kts 122°
2026-05-09 03:39 25.83957 -100.21824 3357 ft 148 kts 122°
2026-05-09 03:39 25.83421 -100.20847 3170 ft 148 kts 121°
2026-05-09 03:40 25.82887 -100.19871 2979 ft 148 kts 121°
2026-05-09 03:40 25.82349 -100.18894 2796 ft 148 kts 118°
2026-05-09 03:40 25.81813 -100.17911 2601 ft 149 kts 119°
2026-05-09 03:40 25.81272 -100.16931 2421 ft 149 kts 120°
2026-05-09 03:41 25.80733 -100.15952 2233 ft 149 kts 119°
2026-05-09 03:41 25.80202 -100.14969 2028 ft 147 kts 119°
2026-05-09 03:41 25.79674 -100.14002 1771 ft 146 kts 120°
2026-05-09 03:41 25.79120 -100.13048 1610 ft 148 kts 121°
2026-05-09 03:42 25.78613 -100.12069 1430 ft 145 kts 120°
2026-05-09 03:42 25.78105 -100.11150 1334 ft 132 kts 121°
2026-05-09 03:42 25.77744 -100.10495 1333 ft 66 kts 121°
2026-05-09 03:42 25.77566 -100.10171 1333 ft 34 kts 121°
2026-05-09 03:43 25.77442 -100.09947 1333 ft 34 kts 121°
2026-05-09 03:43 25.77338 -100.09759 1333 ft 24 kts 121°
2026-05-09 03:43 25.77251 -100.09700 1333 ft 14 kts 209°
2026-05-09 03:43 25.77162 -100.09760 1333 ft 16 kts 211°
2026-05-09 03:44 25.77145 -100.09792 1333 ft 5 kts 272°
2026-05-09 03:44 25.77176 -100.09868 1333 ft 15 kts 301°
2026-05-09 03:44 25.77234 -100.09973 1333 ft 17 kts 301°
2026-05-09 03:44 25.77300 -100.10092 1333 ft 19 kts 301°
2026-05-09 03:45 25.77373 -100.10225 1333 ft 21 kts 301°
2026-05-09 03:45 25.77453 -100.10369 1333 ft 23 kts 301°
2026-05-09 03:45 25.77539 -100.10526 1333 ft 25 kts 301°
2026-05-09 03:45 25.77632 -100.10694 1333 ft 26 kts 302°
2026-05-09 03:46 25.77729 -100.10873 1333 ft 28 kts 302°
2026-05-09 03:46 25.77809 -100.11017 1333 ft 16 kts 301°
2026-05-09 03:46 25.77831 -100.11104 1333 ft 10 kts 240°
2026-05-09 03:46 25.77771 -100.11152 1333 ft 12 kts 211°
2026-05-09 03:47 25.77721 -100.11223 1333 ft 13 kts 251°
2026-05-09 03:47 25.77679 -100.11275 1333 ft 7 kts 263°
2026-05-09 03:47 25.77702 -100.11327 1335 ft 8 kts 301°
2026-05-09 03:47 25.77733 -100.11384 1333 ft 8 kts 302°
2026-05-09 03:48 25.77762 -100.11438 1335 ft 5 kts 302°
2026-05-09 03:48 25.77767 -100.11447 1333 ft 2 kts 302°
2026-05-09 03:48 25.77777 -100.11453 1333 ft 1 kts 356°
2026-05-09 03:48 25.77787 -100.11448 1333 ft 3 kts 27°
2026-05-09 03:49 25.77814 -100.11430 1336 ft 1 kts 31°
2026-05-09 03:49 25.77824 -100.11423 1333 ft 0 kts 31°